Location: ?????
(31.8092°N, 35.2590°E)
Time: 20:07:36
(UTC+00:00)

Cosmos 1943 - Pass Details

Date: 20 June 2021
Orbit: 832 x 851 km, 71.0° (Epoch: 02 August)

Event Time Altitude Azimuth Distance (km) Brightness Sun altitude
Exits shadow 21:55:17 34° 43° (NE) 1,340 4.5 -34.6°
Drops below altitude 10° 21:58:31 10° 29° (NNE) 2,452 6.3 -34.6°
Sets 22:01:00 0° 25° (NNE) 3,393 7.3 -34.5°
